When you browse on this site, cookies collect data to enhance your experience and personalize the content and advertising you see.
Visit our Privacy Policy to learn more. By continuing to use the site, you agree to this use of cookies and data.

Hourly Weather Seaham

Today, 4 July, Saturday

Time Temperature Precipitation Wind Pressure Humidity
00:00 +15°C° 0.4 mm 4 mps 750 mmHg 93%
01:00 +16°C° 0.2 mm 3 mps 750 mmHg 94%
02:00 +14°C° 0.2 mm 3 mps 750 mmHg 94%
03:00 +15°C° 0.2 mm 2 mps 749 mmHg 95%
04:00 +15°C° 2.1 mm 2 mps 749 mmHg 96%
05:00 +15°C° 2.1 mm 2 mps 749 mmHg 96%
06:00 +15°C° 2.1 mm 2 mps 749 mmHg 97%
07:00 +16°C° 0.4 mm 1 mps 749 mmHg 96%
08:00 +16°C° 0.4 mm 1 mps 750 mmHg 95%
09:00 +16°C° 0.4 mm 1 mps 750 mmHg 93%
10:00 +18°C° 0.1 mm 1 mps 750 mmHg 93%
11:00 +18°C° 0.1 mm 1 mps 750 mmHg 92%
12:00 +18°C° 0.1 mm 1 mps 750 mmHg 91%
13:00 +17°C° 0.2 mm 2 mps 750 mmHg 91%
14:00 +17°C° 0.2 mm 3 mps 750 mmHg 91%
15:00 +17°C° 0.2 mm 4 mps 750 mmHg 91%
16:00 +17°C° 0.1 mm 4 mps 750 mmHg 91%
17:00 +17°C° 0.1 mm 4 mps 750 mmHg 91%
18:00 +17°C° 0.1 mm 4 mps 750 mmHg 91%
19:00 +16°C° 0 mm 5 mps 749 mmHg 90%
20:00 +15°C° 0 mm 5 mps 749 mmHg 90%
21:00 +15°C° 0 mm 5 mps 749 mmHg 90%
22:00 +16°C° 0.1 mm 6 mps 748 mmHg 90%
23:00 +16°C° 0.1 mm 7 mps 747 mmHg 90%

Tomorrow, 5 July, Sunday

Time Temperature Precipitation Wind Pressure Humidity
00:00 +16°C° 0.1 mm 7 mps 746 mmHg 90%
01:00 +16°C° 0.2 mm 8 mps 745 mmHg 89%
02:00 +16°C° 0.2 mm 9 mps 745 mmHg 88%
03:00 +16°C° 0.2 mm 10 mps 744 mmHg 87%
04:00 +16°C° 0.1 mm 10 mps 744 mmHg 84%
05:00 +14°C° 0.1 mm 10 mps 744 mmHg 82%
06:00 +14°C° 0.1 mm 10 mps 745 mmHg 79%
07:00 +14°C° 0 mm 10 mps 745 mmHg 74%
08:00 +14°C° 0 mm 10 mps 746 mmHg 70%
09:00 +15°C° 0 mm 9 mps 746 mmHg 66%
10:00 +15°C° 0.1 mm 9 mps 747 mmHg 64%
11:00 +16°C° 0.1 mm 9 mps 747 mmHg 62%
12:00 +16°C° 0.1 mm 10 mps 748 mmHg 60%
13:00 +14°C° 0.2 mm 10 mps 748 mmHg 62%
14:00 +14°C° 0.2 mm 10 mps 748 mmHg 63%
15:00 +14°C° 0.2 mm 10 mps 748 mmHg 65%
16:00 +15°C° 0.1 mm 9 mps 748 mmHg 67%
17:00 +13°C° 0.1 mm 9 mps 748 mmHg 69%
18:00 +13°C° 0.1 mm 8 mps 748 mmHg 71%
19:00 +12°C° 0.2 mm 7 mps 748 mmHg 75%
20:00 +11°C° 0.2 mm 7 mps 748 mmHg 79%
21:00 +10°C° 0.2 mm 6 mps 749 mmHg 83%
22:00 +10°C° 0.2 mm 7 mps 749 mmHg 84%
23:00 +10°C° 0.2 mm 7 mps 749 mmHg 85%

Day after tomorrow, 6 July, Monday

Time Temperature Precipitation Wind Pressure Humidity
00:00 +9°C° 0.2 mm 8 mps 749 mmHg 86%
01:00 +9°C° 0 mm 8 mps 750 mmHg 85%
02:00 +8°C° 0 mm 9 mps 750 mmHg 84%
03:00 +8°C° 0 mm 9 mps 751 mmHg 84%
04:00 +9°C° 0.1 mm 8 mps 751 mmHg 84%
05:00 +10°C° 0.1 mm 7 mps 752 mmHg 85%
06:00 +10°C° 0.1 mm 6 mps 752 mmHg 86%
07:00 +11°C° 0.2 mm 6 mps 753 mmHg 80%
08:00 +14°C° 0.2 mm 7 mps 754 mmHg 74%
09:00 +15°C° 0.2 mm 7 mps 755 mmHg 68%
10:00 +15°C° 0.1 mm 6 mps 756 mmHg 67%
11:00 +16°C° 0.1 mm 6 mps 756 mmHg 66%
12:00 +16°C° 0.1 mm 5 mps 757 mmHg 64%
13:00 +16°C° 0.1 mm 5 mps 758 mmHg 65%
14:00 +16°C° 0.1 mm 5 mps 759 mmHg 65%
15:00 +17°C° 0.1 mm 4 mps 759 mmHg 66%
16:00 +15°C° 0.1 mm 4 mps 760 mmHg 69%
17:00 +16°C° 0.1 mm 3 mps 760 mmHg 71%
18:00 +15°C° 0.1 mm 2 mps 761 mmHg 74%
19:00 +14°C° 0 mm 2 mps 761 mmHg 76%
20:00 +12°C° 0 mm 3 mps 762 mmHg 78%
21:00 +12°C° 0 mm 3 mps 762 mmHg 80%
22:00 +11°C° 0 mm 4 mps 762 mmHg 81%
23:00 +9°C° 0 mm 5 mps 762 mmHg 81%

7 July, Tuesday

Time Temperature Precipitation Wind Pressure Humidity
00:00 +8°C° 0 mm 6 mps 762 mmHg 81%
01:00 +8°C° 0 mm 6 mps 762 mmHg 83%
02:00 +7°C° 0 mm 6 mps 762 mmHg 85%
03:00 +6°C° 0 mm 7 mps 762 mmHg 86%
04:00 +8°C° 0 mm 7 mps 762 mmHg 85%
05:00 +9°C° 0 mm 7 mps 762 mmHg 83%
06:00 +10°C° 0 mm 7 mps 762 mmHg 82%
07:00 +11°C° 0 mm 6 mps 762 mmHg 76%
08:00 +13°C° 0 mm 6 mps 762 mmHg 71%
09:00 +14°C° 0 mm 5 mps 762 mmHg 66%
10:00 +15°C° 0.1 mm 5 mps 762 mmHg 65%
11:00 +15°C° 0.1 mm 4 mps 762 mmHg 64%
12:00 +15°C° 0.1 mm 4 mps 762 mmHg 64%
13:00 +17°C° 0.1 mm 4 mps 762 mmHg 64%
14:00 +17°C° 0.1 mm 4 mps 762 mmHg 64%
15:00 +17°C° 0.1 mm 4 mps 762 mmHg 64%
16:00 +17°C° 0 mm 4 mps 762 mmHg 66%
17:00 +15°C° 0 mm 4 mps 761 mmHg 68%
18:00 +15°C° 0 mm 5 mps 761 mmHg 69%
19:00 +14°C° 0 mm 5 mps 761 mmHg 73%
20:00 +13°C° 0 mm 5 mps 761 mmHg 77%
21:00 +12°C° 0 mm 5 mps 761 mmHg 81%
22:00 +12°C° 0 mm 5 mps 760 mmHg 81%
23:00 +10°C° 0 mm 5 mps 760 mmHg 82%

8 July, Wednesday

Time Temperature Precipitation Wind Pressure Humidity
00:00 +10°C° 0 mm 5 mps 759 mmHg 82%
01:00 +12°C° 0.2 mm 5 mps 758 mmHg 83%
02:00 +11°C° 0.2 mm 6 mps 758 mmHg 84%
03:00 +12°C° 0.2 mm 7 mps 757 mmHg 85%
04:00 +12°C° 0.1 mm 7 mps 756 mmHg 85%
05:00 +14°C° 0.1 mm 7 mps 755 mmHg 85%
06:00 +15°C° 0.1 mm 8 mps 755 mmHg 85%
07:00 +15°C° 0.2 mm 8 mps 754 mmHg 86%
08:00 +15°C° 0.2 mm 8 mps 754 mmHg 87%
09:00 +15°C° 0.2 mm 8 mps 754 mmHg 88%
10:00 +16°C° 0 mm 9 mps 754 mmHg 83%
11:00 +17°C° 0 mm 10 mps 754 mmHg 78%
12:00 +17°C° 0 mm 11 mps 753 mmHg 73%
13:00 +17°C° 0 mm 11 mps 753 mmHg 71%
14:00 +17°C° 0 mm 11 mps 753 mmHg 69%
15:00 +16°C° 0 mm 11 mps 753 mmHg 67%
16:00 +16°C° 0 mm 10 mps 753 mmHg 68%
17:00 +14°C° 0 mm 10 mps 753 mmHg 69%
18:00 +13°C° 0 mm 10 mps 753 mmHg 70%
19:00 +13°C° 0 mm 9 mps 754 mmHg 69%
20:00 +12°C° 0 mm 9 mps 754 mmHg 68%
21:00 +12°C° 0 mm 9 mps 755 mmHg 67%
22:00 +11°C° 0 mm 9 mps 755 mmHg 69%
23:00 +11°C° 0 mm 9 mps 756 mmHg 71%

9 July, Thursday

Time Temperature Precipitation Wind Pressure Humidity
00:00 +10°C° 0 mm 9 mps 757 mmHg 72%
01:00 +9°C° 0 mm 8 mps 757 mmHg 75%
02:00 +9°C° 0 mm 7 mps 758 mmHg 77%
03:00 +8°C° 0 mm 7 mps 758 mmHg 80%
04:00 +9°C° 0 mm 6 mps 759 mmHg 79%
05:00 +9°C° 0 mm 6 mps 759 mmHg 78%
06:00 +9°C° 0 mm 6 mps 760 mmHg 76%
07:00 +10°C° 0 mm 5 mps 760 mmHg 71%
08:00 +13°C° 0 mm 4 mps 760 mmHg 65%
09:00 +14°C° 0 mm 4 mps 761 mmHg 59%
10:00 +16°C° 0 mm 3 mps 761 mmHg 57%
11:00 +16°C° 0 mm 3 mps 761 mmHg 56%
12:00 +17°C° 0 mm 2 mps 762 mmHg 54%
13:00 +17°C° 0 mm 2 mps 761 mmHg 55%
14:00 +17°C° 0 mm 3 mps 761 mmHg 56%
15:00 +18°C° 0 mm 3 mps 761 mmHg 57%
16:00 +17°C° 0 mm 3 mps 761 mmHg 60%
17:00 +17°C° 0 mm 3 mps 761 mmHg 63%
18:00 +17°C° 0 mm 3 mps 761 mmHg 66%
19:00 +14°C° 0 mm 3 mps 761 mmHg 71%
20:00 +13°C° 0 mm 3 mps 761 mmHg 76%
21:00 +11°C° 0 mm 3 mps 761 mmHg 81%
22:00 +11°C° 0 mm 3 mps 761 mmHg 82%
23:00 +10°C° 0 mm 3 mps 761 mmHg 83%
Show more